Regional Weather Roundup
Issued by NWS

Home | Current Version | Previous Version | Graphics & Text | Print | Product List | Glossary On
Versions: 1 2 3 4 5 6 7 8 9 10 11 12 13 14 15 16 17 18 19 20 21 22 23 24 25 26 27 28 29 30 31 32 33 34 35 36 37 38 39 40 41 42 43 44 45 46 47 48 49 50
526
ASUS44 KLIX 220510
RWRLA
LOUISIANA WEATHER ROUNDUP
NATIONAL WEATHER SERVICE NEW ORLEANS LA
1100 PM CST SUN DEC 21 2014

NOTE: "FAIR" INDICATES FEW OR NO CLOUDS BELOW 12,000 FEET WITH NO
      SIGNIFICANT WEATHER AND/OR OBSTRUCTIONS TO VISIBILITY.
      SKY/WX - SKY CONDITION AND SIGNIFICANT WEATHER.
      TMP - AIR TEMPERATURE.    DP   - DEWPOINT TEMPERATURE.
      RH  - RELATIVE HUMIDITY.  PRES - PRESSURE.
      HX  - HEAT INDEX.         WCI  - WIND CHILL INDEX.

*  THESE STATIONS ARE NOT NWS OR FAA STATIONS AND ARE NOT UNDER
   NWS QUALITY CONTROL.

LAZ040-048-061>063-065-066-069-220600-
SOUTHEAST LOUISIANA

CITY           SKY/WX    TMP DP  RH WIND       PRES   REMARKS
N.O. AUDUBON     N/A     59  56  89 MISG        N/A
N.O. INTL ARPT CLOUDY    57  54  89 E5        29.96F FOG
N.O. LAKEFRONT CLOUDY    58  55  90 E10       29.96F FOG
N.O. DOWNTOWN* CLOUDY    57  52  82 NE3       29.96F
SLIDELL        CLOUDY    55  52  89 CALM      29.96F FOG
BATON ROUGE    MOCLDY    51  49  92 E8        29.96S FOG
BOOTHVILLE     CLOUDY    58  57  97 NE6       29.94F FOG
BELLE CHASSE   CLOUDY    57  55  93 NE5       29.94F FOG
BOGALUSA*        N/A     55  51  88 E5        29.99F FOG
GALLIANO*      CLOUDY    57  56  97 MISG      29.95S FOG
NEW ROADS*     CLOUDY    52  50  94 E3        29.95F
GONZALES*      CLOUDY    54  54 100 CALM      29.96R
HAMMOND*       NOT AVBL
HOUMA*         CLOUDY    55  55  97 E5        29.96S FOG
PORT FOURCHON* CLOUDY    61  59  94 E7        29.96F FOG

$$

LAZ041-044-053-054-220600-
SOUTHWEST LOUISIANA

CITY           SKY/WX    TMP DP  RH WIND       PRES   REMARKS
LAKE CHARLES   CLOUDY    51  50  96 E5        29.94S FOG
LAFAYETTE      CLOUDY    51  49  92 CALM      29.95F FOG
PATTERSON      CLOUDY    54  52  94 CALM      29.96S
SALT POINT       N/A     57  52  83 CALM      29.95R
NEW IBERIA     MOCLDY    51  50  96 CALM      29.96S FOG
CHENAULT AIRPK CLOUDY    50  50  99 E6        29.94S FOG

$$

LAZ027-028-220600-
CENTRAL LOUISIANA

CITY           SKY/WX    TMP DP  RH WIND       PRES   REMARKS
FORT POLK      FOG       49  48  98 S7        29.92F VSB 1
ALEXANDRIA INT FOG       49  49 100 S5        29.93R VSB 1
ALEXANDRIA     CLOUDY    48  48 100 S3        29.93S

$$

LAZ001-002-220600-
NORTHWEST LOUISIANA

CITY           SKY/WX    TMP DP  RH WIND       PRES   REMARKS
SHREVEPORT     CLEAR     46  45  96 S7        29.85F
BARKSDALE AFB  NOT AVBL
DTN SHREVEPORT PTCLDY    47  44  90 SE8       29.86F

$$

LAZ014-016-220600-
NORTHEAST LOUISIANA

CITY           SKY/WX    TMP DP  RH WIND       PRES   REMARKS
MONROE         CLEAR     48  47  96 SE3       29.93F
TALLULAH       PTCLDY    50  47  89 SE9       29.94F

$$




USA.gov is the U.S. government's official web portal to all federal, state and local government web resources and services.